Weather in Buzuluk

Russia / Orenburg Oblast     52°47′17″N   52°15′44″E
temp.,
°C
wind,
m/s
gust,
m/s
humid.,
%
clouds,
%
prec.,
mm/h
press.,
hPa
HPBL,
m
26 february, fri
fri2623:00−19s61297100 1.2 1026524
02:00−18sse61295100 0.8 1024591
05:00−16sse61295100 1.1 1022556
08:00−15sse61193100 0.3 1020524
11:00−14sse71091100 0.4 1020554
14:00−13se71088100 0.1 1020611
17:00−13sse61089100 0.1 1020609
20:00−15se51194100 0.0 1018283
27 february, sat
sat2723:00−13sse81391100 0.1 1014507
02:00−11sse91794100 1.7 1008538
05:00−9sse81594100 7.3 1004604
08:00−6s61095100 2.2 1001326
11:000sw48100100 2.8 1000366
14:00+1wsw510100100 0.3 1000509
17:000wsw4899100 0.3 1000455
20:000sw489899 0.4 999389
28 february, sun
sun2823:00−1ssw489799 0.6 999247
02:00−1sw5898100 0.8 998336
05:00−1ssw3698100 2.1 998279
08:00−5w5896100 0.9 999241
11:00−5wnw5896100 1.6 1001284
14:00−6nw699394 0.1 1004387
17:00−8nw689297 0.3 1007437
20:00−11nw489497 0.1 1009293
1 march, mon
mon123:00−14nnw479590 0.2 1012167
02:00−14nnw369677 0.1 1014240
05:00−17nw359577 0.2 1016110
08:00−20nw359662 0.0 101884
11:00−18nnw349340 0.0 1020244
14:00−14nw348985 0.0 1021441
17:00−14nw459192 0.1 1022423
20:00−19nw349789 0.0 102345
2 march, tue
tue223:00−21nw239846 0.0 102422
02:00−22w229920 0.0 102220
05:00−23wsw229730 0.0 102220
08:00−22ssw349747 0.0 101961
11:00−16ssw699373 0.0 1017302
14:00−13ssw61194100 0.3 1014426
17:00−10ssw71194100 1.3 1010554
20:00−8s51094100 0.7 1007420